This is the latest recevied weather packets stored in our database for station/object DL6MAA-11. If no packets are shown the sender has not sent any weather packets the latest 10 day(s).
| Time | Temp. | Humidity | Pressure | Rain* | Wind** | Luminosity | Snow |
|---|---|---|---|---|---|---|---|
| 1778049714 | 12.78° C | 72% | 1003.8 hPa | 0 mm | - | 109 W/m² | - |
| 1778049415 | 12.78° C | 74% | 1003.8 hPa | 0 mm | - | 114 W/m² | - |
| 1778049123 | 12.22° C | 74% | 1003.8 hPa | 0 mm | - | 116 W/m² | - |
| 1778048825 | 12.22° C | 75% | 1003.8 hPa | 0 mm | - | 114 W/m² | - |
| 1778048525 | 12.22° C | 74% | 1003.8 hPa | 0 mm | - | 118 W/m² | - |
| 1778048212 | 12.22° C | 76% | 1003.8 hPa | 0 mm | - | 225 W/m² | - |
| 1778047915 | 11.67° C | 76% | 1003.8 hPa | 0 mm | - | 234 W/m² | - |
| 1778047618 | 11.11° C | 79% | 1003.8 hPa | 0 mm | - | 158 W/m² | - |
| 1778047313 | 11.11° C | 79% | 1003.8 hPa | 0 mm | - | 141 W/m² | - |
| 1778047015 | 10.56° C | 79% | 1003.8 hPa | 0 mm | - | 130 W/m² | - |
| 1778046714 | 10.56° C | 78% | 1003.8 hPa | 0 mm | - | 135 W/m² | - |
| 1778046418 | 10.56° C | 79% | 1003.8 hPa | 0 mm | - | 113 W/m² | - |
| 1778046124 | 10° C | 79% | 1004 hPa | 0 mm | - | 88 W/m² | - |
| 1778045826 | 10° C | 81% | 1004 hPa | 0 mm | - | 125 W/m² | - |
| 1778045525 | 9.44° C | 81% | 1004 hPa | 0 mm | - | 135 W/m² | - |
| 1778045219 | 9.44° C | 82% | 1004.4 hPa | 0 mm | - | 100 W/m² | - |
| 1778044913 | 8.89° C | 81% | 1004.4 hPa | 0 mm | - | 113 W/m² | - |
| 1778044608 | 8.89° C | 82% | 1004.4 hPa | 0 mm | - | 60 W/m² | - |
| 1778044322 | 8.33° C | 82% | 1004.4 hPa | 0 mm | - | 42 W/m² | - |
| 1778044013 | 8.33° C | 83% | 1004.4 hPa | 0 mm | - | 51 W/m² | - |
| 1778043716 | 7.78° C | 83% | 1004.4 hPa | 0 mm | - | 51 W/m² | - |
| 1778043416 | 7.78° C | 83% | 1004.4 hPa | 0 mm | - | 60 W/m² | - |
| 1778043124 | 7.78° C | 82% | 1004.4 hPa | 0 mm | - | 30 W/m² | - |
| 1778042825 | 7.78° C | 82% | 1004.4 hPa | 0 mm | - | 18 W/m² | - |
| 1778042511 | 7.78° C | 82% | 1004.6 hPa | 0 mm | - | 14 W/m² | - |
* Rain since midnight (hover to see other rain measurements)
** Current wind speed in m/s (hover to see current wind gust speed)